Zurück zum Katalog

STARLINK-5547

AktivKommunikationVLEO
NORAD 55352·PAYLOAD·🇺🇸 United States

Gestartet Jan 26, 2023 von Cape Canaveral Space Force Station

Loading…

Nächste Überflüge (nächste 24 Stunden)

TLE

AktuellSource: CelesTrak SupGP

Epoche: Sep 14, 2026, 14:52 UTC

1 55352C 23013X   26257.61993056  .00060741  00000+0  22002-2 0  2572
2 55352  43.0015 313.0300 0001284 277.0536 231.7431 15.27546258    17

Verfolge STARLINK-5547 in Echtzeit mit AllMySat

Download on the App Store